QPF
0.03 0.03 0.03 0.03 0.04 0.04 0.04 0.05 0.06 0.04 0.03 0.04 0.07 0.09 0.08 0.07 0.07 0.05 0.07 0.10 0.10 0.11 0.11 0.07 0.04 0.03 0.04 0.05 0.04 0.03 0.04 0.06 0.08 0.10 0.09 0.08 0.08 0.09
0.04 0.03 0.03 0.03 0.04 0.03 0.04 0.05 0.06 0.07 0.04 0.03 0.04 0.04 0.02 0.02 0.02 0.02 0.02 0.05 0.08 0.07 0.06 0.06 0.06 0.05 0.05 0.04 0.04 0.03 0.03 0.03 0.05 0.08 0.07 0.09 0.10 0.10
0.04 0.04 0.05 0.05 0.05 0.05 0.06 0.06 0.05 0.06 0.04 0.02 0.02 0.02 0.01 0.01 0.01 0.02 0.02 0.03 0.06 0.07 0.07 0.07 0.06 0.06 0.05 0.03 0.03 0.02 0.01 0.02 0.02 0.03 0.03 0.05 0.07 0.09
0.05 0.04 0.04 0.06 0.07 0.07 0.06 0.05 0.05 0.05 0.06 0.03 0.01 0.02 0.02 0.01 0.02 0.02 0.02 0.02 0.04 0.08 0.08 0.08 0.06 0.06 0.05 0.03 0.03 0.02 0.02 0.01 0.02 0.02 0.02 0.02 0.03 0.04
0.04 0.04 0.05 0.08 0.06 0.05 0.05 0.05 0.06 0.06 0.06 0.06 0.03 0.02 0.02 0.02 0.02 0.02 0.02 0.02 0.03 0.06 0.09 0.10 0.09 0.07 0.05 0.04 0.02 0.02 0.02 0.01 0.01 0.02 0.02 0.02 0.03 0.03
0.04 0.05 0.06 0.06 0.05 0.06 0.05 0.05 0.05 0.04 0.05 0.06 0.03 0.02 0.02 0.02 0.03 0.02 0.02 0.02 0.02 0.05 0.07 0.07 0.08 0.08 0.07 0.05 0.04 0.02 0.02 0.01 0.01 0.01 0.01 0.02 0.04 0.06
0.04 0.05 0.06 0.07 0.08 0.08 0.05 0.04 0.04 0.03 0.03 0.04 0.03 0.02 0.01 0.02 0.02 0.02 0.04 0.05 0.06 0.04 0.03 0.03 0.05 0.07 0.08 0.07 0.06 0.04 0.02 0.01 0.01 0.01 0.01 0.01 0.05 0.09
0.06 0.07 0.08 0.08 0.08 0.06 0.04 0.03 0.03 0.03 0.02 0.02 0.02 0.01 0.01 0.01 0.02 0.03 0.03 0.04 0.04 0.05 0.06 0.05 0.05 0.05 0.06 0.07 0.07 0.05 0.03 0.01 0.01 0.01 0.01 0.00 0.01 0.02
0.10 0.09 0.08 0.07 0.06 0.04 0.03 0.03 0.03 0.03 0.03 0.02 0.01 0.01 0.01 0.01 0.01 0.02 0.02 0.02 0.01 0.02 0.03 0.03 0.04 0.05 0.05 0.05 0.07 0.06 0.04 0.03 0.02 0.02 0.01 0.01 0.01 0.01
0.10 0.07 0.04 0.03 0.02 0.02 0.03 0.02 0.02 0.02 0.03 0.02 0.01 0.01 0.01 0.01 0.01 0.02 0.02 0.02 0.02 0.02 0.02 0.03 0.03 0.04 0.03 0.03 0.04 0.05 0.04 0.04 0.03 0.03 0.02 0.02 0.02 0.02
0.04 0.03 0.03 0.02 0.02 0.02 0.02 0.02 0.01 0.01 0.02 0.02 0.02 0.02 0.02 0.02 0.02 0.01 0.02 0.02 0.02 0.02 0.02 0.02 0.02 0.03 0.02 0.03 0.03 0.04 0.04 0.04 0.04 0.03 0.02 0.03 0.03 0.04
0.02 0.01 0.02 0.02 0.02 0.02 0.02 0.02 0.01 0.01 0.01 0.01 0.01 0.01 0.02 0.02 0.02 0.02 0.02 0.02 0.02 0.01 0.01 0.02 0.02 0.03 0.03 0.02 0.02 0.04 0.05 0.05 0.05 0.05 0.03 0.02 0.03 0.04
0.02 0.01 0.00 0.01 0.01 0.01 0.02 0.02 0.01 0.02 0.02 0.02 0.02 0.02 0.02 0.01 0.01 0.01 0.02 0.02 0.02 0.02 0.02 0.02 0.03 0.04 0.05 0.04 0.03 0.03 0.05 0.06 0.06 0.06 0.05 0.04 0.04 0.04
0.01 0.01 0.01 0.01 0.01 0.01 0.01 0.01 0.01 0.01 0.02 0.02 0.02 0.01 0.01 0.01 0.01 0.01 0.02 0.02 0.02 0.02 0.02 0.04 0.05 0.06 0.06 0.05 0.05 0.05 0.06 0.06 0.05 0.05 0.05 0.05 0.04 0.04
0.02 0.03 0.03 0.02 0.02 0.02 0.02 0.02 0.01 0.01 0.01 0.01 0.01 0.01 0.02 0.01 0.01 0.01 0.01 0.02 0.02 0.01 0.02 0.03 0.05 0.07 0.09 0.08 0.07 0.06 0.05 0.06 0.06 0.05 0.05 0.05 0.05 0.05
0.05 0.06 0.06 0.05 0.04 0.03 0.02 0.02 0.02 0.02 0.02 0.02 0.01 0.01 0.01 0.01 0.02 0.02 0.01 0.02 0.02 0.01 0.01 0.02 0.06 0.09 0.10 0.09 0.09 0.08 0.07 0.06 0.06 0.06 0.07 0.07 0.07 0.07
0.04 0.03 0.03 0.02 0.02 0.01 0.01 0.01 0.01 0.01 0.02 0.02 0.02 0.02 0.02 0.02 0.02 0.02 0.02 0.02 0.02 0.01 0.01 0.02 0.04 0.07 0.08 0.10 0.13 0.10 0.07 0.07 0.08 0.10 0.10 0.09 0.08 0.08
0.02 0.01 0.01 0.01 0.01 0.01 0.01 0.01 0.01 0.01 0.02 0.02 0.01 0.01 0.01 0.01 0.01 0.01 0.02 0.03 0.03 0.01 0.01 0.02 0.04 0.06 0.05 0.05 0.08 0.11 0.12 0.10 0.10 0.12 0.12 0.10 0.10 0.12
0.01 0.01 0.01 0.01 0.01 0.01 0.01 0.01 0.02 0.01 0.01 0.01 0.01 0.01 0.02 0.02 0.02 0.02 0.02 0.02 0.02 0.01 0.01 0.02 0.03 0.04 0.04 0.03 0.03 0.05 0.08 0.11 0.15 0.16 0.16 0.15 0.16 0.17
0.01 0.01 0.01 0.01 0.01 0.01 0.01 0.01 0.01 0.01 0.01 0.02 0.02 0.02 0.03 0.03 0.03 0.03 0.03 0.02 0.02 0.02 0.03 0.03 0.03 0.04 0.05 0.05 0.05 0.05 0.07 0.10 0.13 0.14 0.13 0.12 0.11 0.10
0.01 0.01 0.01 0.01 0.01 0.01 0.01 0.02 0.02 0.02 0.02 0.02 0.03 0.03 0.04 0.04 0.05 0.05 0.03 0.02 0.02 0.03 0.03 0.03 0.03 0.05 0.07 0.10 0.09 0.08 0.09 0.10 0.12 0.12 0.11 0.12 0.11 0.09
0.01 0.01 0.01 0.01 0.01 0.01 0.02 0.03 0.04 0.03 0.04 0.05 0.06 0.05 0.05 0.06 0.05 0.05 0.05 0.05 0.04 0.04 0.04 0.03 0.04 0.06 0.09 0.09 0.08 0.09 0.11 0.12 0.12 0.14 0.15 0.14 0.11 0.09
0.02 0.02 0.02 0.02 0.02 0.01 0.02 0.03 0.04 0.04 0.05 0.06 0.08 0.08 0.07 0.07 0.06 0.04 0.04 0.06 0.06 0.04 0.04 0.04 0.05 0.06 0.06 0.07 0.09 0.09 0.10 0.13 0.13 0.13 0.14 0.14 0.12 0.09
MSLP
1014.91 1014.93 1015.00 1015.06 1015.07 1015.00 1014.82 1014.50 1014.07 1013.53 1012.91 1012.25 1011.56 1010.89 1010.24 1009.64 1009.10 1008.62 1008.23 1007.93 1007.72 1007.61 1007.57 1007.59 1007.66 1007.75 1007.84 1007.91 1007.96 1007.98 1007.98 1007.98 1007.98 1007.99 1008.02 1008.07 1008.13 1008.19
1014.09 1014.05 1014.06 1014.08 1014.08 1014.03 1013.89 1013.66 1013.33 1012.90 1012.40 1011.83 1011.23 1010.61 1009.99 1009.38 1008.81 1008.30 1007.85 1007.49 1007.22 1007.05 1006.97 1006.95 1006.98 1007.04 1007.10 1007.14 1007.16 1007.15 1007.13 1007.10 1007.09 1007.10 1007.13 1007.20 1007.27 1007.35
1013.26 1013.17 1013.12 1013.10 1013.08 1013.03 1012.92 1012.75 1012.50 1012.17 1011.77 1011.31 1010.80 1010.24 1009.67 1009.09 1008.51 1007.98 1007.50 1007.09 1006.78 1006.56 1006.42 1006.36 1006.35 1006.36 1006.38 1006.38 1006.35 1006.30 1006.25 1006.20 1006.18 1006.19 1006.24 1006.33 1006.44 1006.55
1012.51 1012.37 1012.27 1012.21 1012.16 1012.09 1011.99 1011.85 1011.65 1011.39 1011.08 1010.70 1010.27 1009.79 1009.27 1008.73 1008.18 1007.65 1007.16 1006.73 1006.39 1006.13 1005.95 1005.84 1005.78 1005.74 1005.69 1005.63 1005.55 1005.45 1005.36 1005.29 1005.26 1005.28 1005.35 1005.48 1005.63 1005.79
1011.89 1011.72 1011.59 1011.48 1011.39 1011.29 1011.17 1011.03 1010.85 1010.62 1010.35 1010.04 1009.67 1009.26 1008.79 1008.30 1007.80 1007.30 1006.82 1006.40 1006.05 1005.78 1005.57 1005.41 1005.29 1005.18 1005.06 1004.93 1004.78 1004.63 1004.49 1004.38 1004.34 1004.37 1004.48 1004.64 1004.85 1005.06
1011.44 1011.26 1011.10 1010.96 1010.82 1010.67 1010.51 1010.33 1010.13 1009.90 1009.65 1009.36 1009.03 1008.66 1008.26 1007.83 1007.38 1006.93 1006.50 1006.11 1005.77 1005.48 1005.25 1005.06 1004.88 1004.70 1004.50 1004.29 1004.06 1003.84 1003.64 1003.51 1003.45 1003.49 1003.61 1003.82 1004.07 1004.33
1011.17 1010.99 1010.81 1010.63 1010.44 1010.24 1010.01 1009.78 1009.53 1009.26 1008.99 1008.70 1008.39 1008.06 1007.70 1007.32 1006.94 1006.55 1006.17 1005.82 1005.51 1005.24 1004.99 1004.76 1004.53 1004.28 1004.01 1003.71 1003.40 1003.11 1002.86 1002.68 1002.60 1002.63 1002.78 1003.02 1003.31 1003.61
1011.05 1010.88 1010.69 1010.48 1010.24 1009.97 1009.68 1009.37 1009.05 1008.73 1008.41 1008.09 1007.77 1007.46 1007.13 1006.81 1006.48 1006.15 1005.84 1005.54 1005.26 1005.00 1004.75 1004.49 1004.21 1003.90 1003.56 1003.18 1002.80 1002.44 1002.13 1001.91 1001.81 1001.84 1001.99 1002.24 1002.56 1002.90
1011.03 1010.86 1010.67 1010.44 1010.16 1009.84 1009.48 1009.09 1008.69 1008.30 1007.92 1007.55 1007.21 1006.89 1006.59 1006.30 1006.01 1005.74 1005.48 1005.23 1004.98 1004.74 1004.48 1004.20 1003.89 1003.53 1003.12 1002.69 1002.25 1001.83 1001.48 1001.22 1001.10 1001.11 1001.26 1001.52 1001.85 1002.20
1011.05 1010.89 1010.70 1010.45 1010.15 1009.78 1009.36 1008.91 1008.44 1007.97 1007.52 1007.10 1006.73 1006.38 1006.07 1005.80 1005.54 1005.30 1005.07 1004.85 1004.63 1004.40 1004.14 1003.85 1003.51 1003.12 1002.68 1002.21 1001.74 1001.29 1000.91 1000.63 1000.49 1000.49 1000.63 1000.88 1001.21 1001.56
1011.04 1010.89 1010.71 1010.46 1010.14 1009.74 1009.28 1008.78 1008.24 1007.71 1007.20 1006.73 1006.30 1005.92 1005.59 1005.30 1005.05 1004.81 1004.60 1004.39 1004.18 1003.95 1003.70 1003.40 1003.06 1002.66 1002.22 1001.74 1001.26 1000.81 1000.43 1000.15 1000.00 999.98 1000.11 1000.35 1000.66 1001.01
1010.96 1010.83 1010.66 1010.42 1010.09 1009.68 1009.20 1008.66 1008.08 1007.50 1006.94 1006.41 1005.93 1005.50 1005.13 1004.81 1004.53 1004.28 1004.05 1003.83 1003.62 1003.39 1003.14 1002.85 1002.51 1002.14 1001.71 1001.26 1000.81 1000.39 1000.03 999.76 999.62 999.60 999.72 999.94 1000.23 1000.56
1010.79 1010.68 1010.52 1010.29 1009.98 1009.57 1009.08 1008.52 1007.92 1007.30 1006.70 1006.12 1005.59 1005.11 1004.69 1004.32 1003.99 1003.70 1003.44 1003.20 1002.96 1002.73 1002.48 1002.20 1001.90 1001.56 1001.18 1000.79 1000.39 1000.02 999.70 999.47 999.34 999.33 999.43 999.64 999.91 1000.22
1010.53 1010.43 1010.29 1010.07 1009.78 1009.38 1008.90 1008.34 1007.73 1007.09 1006.46 1005.85 1005.27 1004.74 1004.27 1003.84 1003.45 1003.11 1002.80 1002.52 1002.26 1002.01 1001.76 1001.51 1001.24 1000.95 1000.64 1000.32 999.99 999.69 999.43 999.24 999.14 999.13 999.23 999.42 999.68 999.96
1010.18 1010.10 1009.97 1009.77 1009.49 1009.11 1008.64 1008.10 1007.50 1006.86 1006.22 1005.58 1004.97 1004.40 1003.87 1003.38 1002.93 1002.53 1002.16 1001.84 1001.54 1001.28 1001.04 1000.81 1000.59 1000.35 1000.11 999.86 999.61 999.38 999.18 999.03 998.96 998.97 999.06 999.25 999.48 999.76
1009.78 1009.70 1009.57 1009.39 1009.13 1008.77 1008.33 1007.81 1007.23 1006.61 1005.97 1005.32 1004.70 1004.09 1003.51 1002.97 1002.47 1002.01 1001.59 1001.22 1000.89 1000.61 1000.37 1000.16 999.97 999.79 999.61 999.43 999.25 999.07 998.93 998.82 998.77 998.78 998.88 999.05 999.28 999.55
1009.34 1009.26 1009.13 1008.96 1008.71 1008.38 1007.97 1007.48 1006.94 1006.35 1005.73 1005.10 1004.46 1003.84 1003.23 1002.65 1002.09 1001.58 1001.11 1000.69 1000.34 1000.03 999.79 999.59 999.42 999.28 999.14 999.01 998.88 998.76 998.65 998.56 998.53 998.55 998.64 998.80 999.03 999.30
1008.90 1008.80 1008.68 1008.51 1008.28 1007.98 1007.61 1007.16 1006.66 1006.11 1005.53 1004.92 1004.29 1003.66 1003.04 1002.42 1001.83 1001.27 1000.75 1000.30 999.90 999.57 999.31 999.11 998.95 998.83 998.72 998.62 998.52 998.42 998.34 998.26 998.23 998.25 998.34 998.49 998.71 998.98
1008.49 1008.37 1008.25 1008.09 1007.88 1007.61 1007.28 1006.89 1006.44 1005.94 1005.39 1004.81 1004.21 1003.58 1002.94 1002.30 1001.67 1001.07 1000.51 1000.01 999.58 999.22 998.94 998.72 998.56 998.44 998.35 998.26 998.18 998.09 998.01 997.94 997.91 997.92 997.99 998.14 998.35 998.62
1008.13 1008.00 1007.88 1007.73 1007.55 1007.32 1007.03 1006.69 1006.29 1005.84 1005.34 1004.79 1004.20 1003.57 1002.92 1002.25 1001.59 1000.94 1000.34 999.80 999.33 998.94 998.63 998.40 998.23 998.11 998.02 997.94 997.87 997.79 997.71 997.65 997.61 997.62 997.68 997.81 998.02 998.29
1007.85 1007.73 1007.61 1007.48 1007.33 1007.13 1006.89 1006.60 1006.25 1005.83 1005.36 1004.83 1004.25 1003.61 1002.94 1002.24 1001.53 1000.85 1000.20 999.61 999.11 998.69 998.36 998.11 997.94 997.83 997.74 997.68 997.62 997.56 997.50 997.44 997.41 997.41 997.47 997.59 997.78 998.04
1007.67 1007.56 1007.46 1007.35 1007.23 1007.07 1006.86 1006.61 1006.29 1005.90 1005.45 1004.92 1004.32 1003.66 1002.95 1002.21 1001.46 1000.73 1000.04 999.41 998.87 998.44 998.10 997.86 997.70 997.60 997.54 997.51 997.48 997.46 997.42 997.39 997.37 997.38 997.44 997.55 997.72 997.94
1007.61 1007.52 1007.43 1007.35 1007.24 1007.11 1006.93 1006.69 1006.38 1006.01 1005.54 1005.00 1004.37 1003.67 1002.91 1002.12 1001.32 1000.54 999.82 999.16 998.61 998.17 997.84 997.62 997.49 997.44 997.43 997.45 997.48 997.50 997.52 997.53 997.54 997.56 997.62 997.71 997.85 998.04
Thickness
5746 5744 5742 5741 5739 5736 5733 5729 5722 5717 5719 5725 5728 5732 5731 5730 5730 5729 5728 5727 5726 5724 5723 5723 5723 5721 5720 5719 5718 5718 5717 5716 5715 5714 5714 5712 5711 5710
5744 5742 5740 5739 5737 5735 5732 5728 5724 5719 5716 5721 5724 5727 5727 5727 5726 5725 5724 5723 5721 5721 5720 5719 5718 5717 5716 5715 5715 5714 5713 5712 5712 5711 5710 5709 5708 5707
5741 5739 5737 5736 5733 5731 5729 5726 5722 5719 5714 5718 5720 5722 5721 5721 5721 5720 5719 5718 5717 5716 5716 5715 5714 5713 5713 5711 5711 5709 5708 5707 5707 5706 5706 5705 5705 5704
5737 5735 5733 5732 5729 5727 5725 5722 5720 5718 5713 5711 5713 5714 5714 5715 5714 5713 5713 5713 5712 5712 5712 5711 5710 5709 5708 5707 5706 5704 5703 5702 5702 5702 5701 5701 5701 5700
5733 5731 5729 5727 5724 5722 5720 5718 5717 5716 5712 5708 5708 5708 5709 5709 5707 5707 5707 5706 5707 5707 5706 5706 5705 5704 5703 5702 5700 5699 5698 5697 5697 5697 5697 5696 5696 5696
5730 5728 5726 5724 5721 5719 5716 5713 5712 5710 5707 5704 5702 5701 5701 5701 5699 5697 5697 5699 5699 5700 5700 5700 5699 5698 5698 5697 5695 5694 5693 5692 5692 5692 5692 5691 5691 5691
5724 5722 5721 5720 5719 5716 5713 5709 5707 5704 5701 5698 5695 5694 5693 5692 5691 5691 5690 5691 5693 5694 5692 5693 5692 5692 5691 5690 5690 5689 5688 5687 5686 5686 5686 5685 5685 5685
5716 5715 5715 5714 5713 5711 5709 5706 5703 5699 5695 5691 5689 5687 5687 5687 5686 5685 5683 5681 5682 5688 5685 5686 5686 5685 5685 5685 5685 5684 5682 5681 5680 5680 5679 5679 5679 5680
5710 5708 5708 5709 5706 5704 5702 5701 5698 5696 5693 5689 5685 5684 5683 5683 5681 5679 5677 5676 5677 5680 5678 5678 5679 5678 5680 5680 5680 5678 5677 5676 5675 5674 5673 5673 5673 5673
5704 5703 5701 5700 5699 5697 5695 5693 5691 5690 5688 5686 5684 5682 5682 5680 5677 5675 5673 5672 5673 5674 5672 5669 5672 5671 5675 5674 5674 5672 5671 5670 5669 5668 5667 5667 5667 5667
5699 5698 5695 5693 5693 5690 5687 5684 5682 5682 5683 5682 5680 5678 5677 5675 5672 5668 5665 5662 5662 5666 5666 5663 5664 5664 5666 5667 5668 5666 5665 5664 5663 5663 5662 5662 5661 5660
5692 5691 5689 5687 5685 5682 5679 5676 5674 5674 5674 5674 5672 5672 5670 5669 5666 5663 5659 5656 5654 5656 5659 5657 5657 5655 5655 5660 5661 5660 5659 5658 5658 5657 5657 5656 5655 5653
5684 5682 5681 5680 5677 5675 5672 5670 5669 5668 5665 5663 5662 5662 5661 5660 5659 5657 5655 5652 5649 5649 5652 5651 5649 5648 5646 5649 5652 5653 5652 5652 5651 5651 5651 5650 5649 5647
5676 5675 5674 5672 5669 5667 5665 5663 5662 5659 5656 5654 5652 5651 5651 5651 5652 5651 5649 5648 5648 5647 5647 5645 5642 5641 5639 5639 5641 5644 5645 5645 5644 5644 5645 5644 5643 5642
5669 5668 5665 5663 5661 5658 5657 5655 5652 5649 5647 5645 5644 5644 5644 5644 5644 5643 5642 5642 5642 5642 5641 5639 5637 5636 5634 5633 5634 5634 5634 5636 5637 5637 5637 5638 5637 5636
5660 5658 5656 5654 5651 5650 5648 5646 5644 5641 5639 5638 5637 5637 5637 5636 5635 5634 5633 5632 5631 5633 5634 5633 5632 5630 5628 5628 5627 5627 5627 5628 5630 5631 5631 5631 5631 5631
5649 5646 5645 5644 5641 5640 5639 5637 5636 5634 5632 5631 5630 5629 5629 5628 5627 5626 5625 5623 5622 5622 5624 5625 5625 5624 5623 5622 5621 5621 5621 5622 5623 5624 5623 5623 5625 5625
5639 5637 5637 5636 5634 5633 5631 5630 5629 5627 5626 5624 5623 5622 5621 5620 5620 5619 5617 5616 5615 5615 5615 5616 5615 5614 5614 5616 5616 5615 5615 5615 5617 5618 5618 5618 5618 5618
5630 5629 5629 5629 5627 5626 5624 5623 5622 5621 5620 5617 5616 5615 5614 5613 5612 5612 5611 5609 5608 5608 5608 5608 5607 5606 5604 5605 5609 5610 5609 5610 5611 5612 5612 5612 5613 5613
5623 5622 5622 5622 5621 5619 5617 5616 5615 5613 5611 5610 5609 5608 5607 5605 5605 5604 5604 5602 5601 5601 5600 5601 5601 5600 5598 5599 5600 5603 5604 5604 5605 5606 5607 5607 5607 5607
5617 5616 5615 5615 5613 5612 5610 5608 5606 5605 5603 5602 5601 5600 5600 5598 5598 5597 5597 5596 5595 5594 5594 5595 5596 5597 5596 5595 5594 5596 5597 5599 5600 5600 5601 5601 5601 5600
5610 5609 5608 5606 5605 5603 5602 5600 5598 5597 5595 5594 5593 5592 5592 5591 5591 5591 5591 5590 5589 5588 5588 5589 5590 5590 5589 5588 5588 5589 5590 5592 5593 5595 5596 5598 5597 5596
5602 5601 5600 5598 5597 5595 5593 5591 5590 5588 5587 5586 5585 5584 5584 5584 5584 5585 5584 5584 5583 5582 5581 5581 5582 5582 5582 5582 5582 5583 5584 5584 5584 5586 5587 5589 5591 5591